Adelanto, California, United States (92301)
Lat: 34.58N, Lon: 117.41W
Wx Zone: CAZ060
Local Info
Past Weather Observations for Yesterday

NOTE: This archive is for the closest National Weather Service station to Adelanto. Information may differ from the station used for current weather conditions.

Click here for Long-term Archive

Time Weather Temperature Dewpoint Humidity Pressure Winds Precip Visibility
23:55
Clear
45°F / 7°C 41°F / 5°C 87% 30.21 in
(1023 mb)
W 5.8 mph
(W 9 kph)
- 10SM
23:35
Clear
46°F / 8°C 43°F / 6°C 87% 30.21 in
(1023 mb)
W 4.6 mph
(W 7 kph)
- 10SM
23:15
Clear
46°F / 8°C 43°F / 6°C 87% 30.18 in
(1022 mb)
Calm - 10SM
22:55
Clear
46°F / 8°C 43°F / 6°C 87% 30.21 in
(1023 mb)
Calm - 10SM
22:35
Clear
46°F / 8°C 43°F / 6°C 87% 30.21 in
(1023 mb)
Calm - 10SM
22:15
Clear
46°F / 8°C 43°F / 6°C 87% 30.18 in
(1022 mb)
Calm - 10SM
21:55
Clear
48°F / 9°C 43°F / 6°C 82% 30.18 in
(1022 mb)
Calm - 10SM
21:35
Clear
48°F / 9°C 43°F / 6°C 82% 30.18 in
(1022 mb)
Calm - 10SM
21:15
Clear
48°F / 9°C 43°F / 6°C 82% 30.18 in
(1022 mb)
Calm - 10SM
20:55
Clear
48°F / 9°C 43°F / 6°C 82% 30.18 in
(1022 mb)
SSW 6.9 mph
(SSW 11 kph)
- 10SM
20:35
Clear
48°F / 9°C 45°F / 7°C 87% 30.18 in
(1022 mb)
W 10.4 mph
(W 17 kph)
- 10SM
20:15
Clear
48°F / 9°C 45°F / 7°C 87% 30.18 in
(1022 mb)
SSW 4.6 mph
(SSW 7 kph)
- 10SM
19:55
Clear
48°F / 9°C 45°F / 7°C 87% 30.15 in
(1021 mb)
W 9.2 mph
(W 15 kph)
- 10SM
19:35
Clear
50°F / 10°C 45°F / 7°C 82% 30.15 in
(1021 mb)
W 9.2 mph
(W 15 kph)
- 10SM
19:15
Clear
50°F / 10°C 45°F / 7°C 82% 30.15 in
(1021 mb)
W 10.4 mph
(W 17 kph)
- 10SM
18:55
Clear
50°F / 10°C 45°F / 7°C 82% 30.15 in
(1021 mb)
SSW 9.2 mph
(SSW 15 kph)
- 10SM
18:35
Clear
52°F / 11°C 45°F / 7°C 77% 30.15 in
(1021 mb)
W 9.2 mph
(W 15 kph)
- 10SM
18:15
Clear
52°F / 11°C 45°F / 7°C 77% 30.12 in
(1020 mb)
W 9.2 mph
(W 15 kph)
- 10SM
17:55
Clear
52°F / 11°C 45°F / 7°C 77% 30.15 in
(1021 mb)
W 10.4 mph
(W 17 kph)
- 10SM
17:35
Clear
52°F / 11°C 45°F / 7°C 77% 30.15 in
(1021 mb)
WNW 8.1 mph
(WNW 13 kph)
- 10SM
17:15
Clear
54°F / 12°C 45°F / 7°C 72% 30.15 in
(1021 mb)
W 10.4 mph
(W 17 kph)
- 10SM
16:55
Clear
54°F / 12°C 45°F / 7°C 72% 30.12 in
(1020 mb)
W 6.9 mph
(W 11 kph)
- 10SM
16:35
Clear
54°F / 12°C 45°F / 7°C 72% 30.12 in
(1020 mb)
W 10.4 mph
(W 17 kph)
- 10SM
16:15
Clear
55°F / 13°C 45°F / 7°C 67% 30.09 in
(1019 mb)
W 10.4 mph
(W 17 kph)
- 10SM
15:55
Partly Cloudy
55°F / 13°C 45°F / 7°C 67% 30.09 in
(1019 mb)
W 10.4 mph
(W 17 kph)
- 10SM
15:35
Partly Cloudy
55°F / 13°C 45°F / 7°C 67% 30.09 in
(1019 mb)
W 15 mph
(W 24 kph)
- 10SM
15:15
Partly Cloudy
55°F / 13°C 45°F / 7°C 67% 30.09 in
(1019 mb)
W 12.7 mph
(W 20 kph)
- 10SM
14:55
Partly Cloudy
55°F / 13°C 45°F / 7°C 67% 30.09 in
(1019 mb)
W 15 mph
(W 24 kph)
- 10SM
14:35
Partly Cloudy
55°F / 13°C 45°F / 7°C 67% 30.09 in
(1019 mb)
W 13.8 mph
(W 22 kph)
- 10SM
14:15
Partly Cloudy
57°F / 14°C 45°F / 7°C 63% 30.09 in
(1019 mb)
W 12.7 mph
(W 20 kph)
- 10SM
13:55
Partly Cloudy
57°F / 14°C 45°F / 7°C 63% 30.12 in
(1020 mb)
W 17.3 mph
(W 28 kph)
- 10SM
13:35
Partly Cloudy
59°F / 15°C 43°F / 6°C 55% 30.12 in
(1020 mb)
W 18.4 mph
(W 30 kph)
- 10SM
13:15
Partly Cloudy
57°F / 14°C 45°F / 7°C 63% 30.12 in
(1020 mb)
W 11.5 mph
(W 19 kph)
- 10SM
12:55
Partly Cloudy
57°F / 14°C 45°F / 7°C 63% 30.12 in
(1020 mb)
W 12.7 mph
(W 20 kph)
- 10SM
12:35
Partly Cloudy
55°F / 13°C 45°F / 7°C 67% 30.12 in
(1020 mb)
W 8.1 mph
(W 13 kph)
- 10SM
12:15
Partly Cloudy
54°F / 12°C 43°F / 6°C 67% 30.15 in
(1021 mb)
SSW 4.6 mph
(SSW 7 kph)
- 10SM
11:55
Partly Cloudy
52°F / 11°C 43°F / 6°C 72% 30.15 in
(1021 mb)
Calm - 10SM
11:35
Partly Cloudy
52°F / 11°C 43°F / 6°C 72% 30.15 in
(1021 mb)
Calm - 10SM
11:15
Partly Cloudy
50°F / 10°C 43°F / 6°C 76% 30.15 in
(1021 mb)
Calm - 10SM
10:55
Partly Cloudy
50°F / 10°C 43°F / 6°C 76% 30.18 in
(1022 mb)
Calm - 10SM
10:35
Partly Cloudy
48°F / 9°C 43°F / 6°C 82% 30.18 in
(1022 mb)
Calm - 10SM
10:15
Partly Cloudy
48°F / 9°C 41°F / 5°C 76% 30.18 in
(1022 mb)
Calm - 10SM
09:55
Fair
48°F / 9°C 43°F / 6°C 82% 30.18 in
(1022 mb)
SSW 3.5 mph
(SSW 6 kph)
- 10SM
09:35
Partly Cloudy
48°F / 9°C 43°F / 6°C 82% 30.18 in
(1022 mb)
SSE 3.5 mph
(SSE 6 kph)
- 10SM
09:15
Partly Cloudy
46°F / 8°C 41°F / 5°C 82% 30.18 in
(1022 mb)
Calm - 10SM
08:55
Partly Cloudy
45°F / 7°C 39°F / 4°C 81% 30.18 in
(1022 mb)
S 3.5 mph
(S 6 kph)
- 10SM
08:35
Partly Cloudy
45°F / 7°C 37°F / 3°C 76% 30.18 in
(1022 mb)
SSE 4.6 mph
(SSE 7 kph)
- 10SM
08:15
Partly Cloudy
41°F / 5°C 36°F / 2°C 81% 30.18 in
(1022 mb)
S 6.9 mph
(S 11 kph)
- 10SM
07:55
Partly Cloudy
41°F / 5°C 36°F / 2°C 81% 30.18 in
(1022 mb)
SSE 4.6 mph
(SSE 7 kph)
- 10SM
07:35
Fair
41°F / 5°C 36°F / 2°C 81% 30.15 in
(1021 mb)
SSE 5.8 mph
(SSE 9 kph)
- 10SM
07:15
Fair
41°F / 5°C 36°F / 2°C 81% 30.15 in
(1021 mb)
SSE 5.8 mph
(SSE 9 kph)
- 10SM
06:55
Clear
39°F / 4°C 36°F / 2°C 87% 30.15 in
(1021 mb)
S 9.2 mph
(S 15 kph)
- 10SM
06:35
Clear
39°F / 4°C 36°F / 2°C 87% 30.15 in
(1021 mb)
S 6.9 mph
(S 11 kph)
- 10SM
06:15
Clear
39°F / 4°C 36°F / 2°C 87% 30.15 in
(1021 mb)
S 6.9 mph
(S 11 kph)
- 10SM
05:55
Clear
39°F / 4°C 36°F / 2°C 87% 30.15 in
(1021 mb)
SSE 4.6 mph
(SSE 7 kph)
- 10SM
05:35
Clear
39°F / 4°C 34°F / 1°C 81% 30.15 in
(1021 mb)
S 3.5 mph
(S 6 kph)
- 10SM
05:15
Fair
39°F / 4°C 34°F / 1°C 81% 30.12 in
(1020 mb)
S 4.6 mph
(S 7 kph)
- 10SM
04:55
Clear
39°F / 4°C 36°F / 2°C 87% 30.12 in
(1020 mb)
S 5.8 mph
(S 9 kph)
- 10SM
04:35
Clear
37°F / 3°C 36°F / 2°C 93% 30.12 in
(1020 mb)
S 4.6 mph
(S 7 kph)
- 10SM
04:15
Clear
39°F / 4°C 36°F / 2°C 87% 30.12 in
(1020 mb)
Calm - 10SM
03:55
Clear
39°F / 4°C 36°F / 2°C 87% 30.15 in
(1021 mb)
SSE 3.5 mph
(SSE 6 kph)
- 10SM
03:35
Clear
39°F / 4°C 36°F / 2°C 87% 30.12 in
(1020 mb)
S 6.9 mph
(S 11 kph)
- 10SM
03:15
Clear
39°F / 4°C 36°F / 2°C 87% 30.15 in
(1021 mb)
S 8.1 mph
(S 13 kph)
- 10SM
02:55
Clear
39°F / 4°C 36°F / 2°C 87% 30.15 in
(1021 mb)
S 6.9 mph
(S 11 kph)
- 10SM
02:35
Clear
39°F / 4°C 36°F / 2°C 87% 30.15 in
(1021 mb)
S 6.9 mph
(S 11 kph)
- 10SM
02:15
Clear
39°F / 4°C 36°F / 2°C 87% 30.15 in
(1021 mb)
S 5.8 mph
(S 9 kph)
- 10SM
01:55
Clear
39°F / 4°C 36°F / 2°C 87% 30.15 in
(1021 mb)
S 5.8 mph
(S 9 kph)
- 10SM
01:35
Clear
39°F / 4°C 36°F / 2°C 87% 30.15 in
(1021 mb)
S 4.6 mph
(S 7 kph)
- 10SM
01:15
Clear
43°F / 6°C 36°F / 2°C 76% 30.15 in
(1021 mb)
S 4.6 mph
(S 7 kph)
- 10SM
00:55
Fair
43°F / 6°C 36°F / 2°C 76% 30.18 in
(1022 mb)
SSE 3.5 mph
(SSE 6 kph)
- 10SM
00:35
Fair
39°F / 4°C 36°F / 2°C 87% 30.18 in
(1022 mb)
SSE 3.5 mph
(SSE 6 kph)
- 10SM
00:15
Fair
41°F / 5°C 36°F / 2°C 81% 30.18 in
(1022 mb)
SSE 3.5 mph
(SSE 6 kph)
- 10SM
Time Weather Temperature Dewpoint Humidity Pressure Winds Precip Visibility


Weather for websites

WeatherForYou.com, LLC is not responsible for any damages or problems caused by this service. Current weather conditions are obtained from the closest station including government and personal stations which may have varying degrees of accuracy. Weather forecasts are derived from the NOAA NDFD. Like all things, this site belongs to Jesus Christ... He just trusts me to maintain it. If you have any questions or comments email webmaster@weatherforyou.com

Copyright © 2014, WeatherForYou.com LLC. All rights reserved.